| time (UTC) | temp F | wind direction | speed MPH | gust MPH | rain 1hr in | rain 24hr in | rain mn in | humidity % | barometer mb |
| 20260506154501 | 72 | 252 | 2.0 | 5.0 | 0.00 | 0.00 | 0.00 | 78 | 1012.5 |
| 20260506153057 | 71 | 255 | 0.0 | 1.0 | 0.00 | 0.00 | 0.00 | 80 | 1012.8 |
| 20260506151556 | 70 | 219 | 0.0 | 2.0 | 0.00 | 0.00 | 0.00 | 80 | 1013.1 |
| 20260506150101 | 70 | 223 | 0.0 | 2.0 | 0.00 | 0.00 | 0.00 | 80 | 1013.0 |
| 20260506144553 | 69 | 275 | 0.0 | 3.0 | 0.00 | 0.00 | 0.00 | 81 | 1013.1 |
| 20260506143048 | 69 | 245 | 0.0 | 2.0 | 0.00 | 0.00 | 0.00 | 84 | 1012.9 |
| 20260506141546 | 68 | 213 | 0.0 | 2.0 | 0.00 | 0.00 | 0.00 | 85 | 1012.7 |
| 20260506140047 | 67 | 245 | 0.0 | 2.0 | 0.00 | 0.00 | 0.00 | 85 | 1012.5 |
| 20260506134608 | 67 | 253 | 0.0 | 2.0 | 0.00 | 0.00 | 0.00 | 86 | 1012.2 |
| 20260506133038 | 67 | 243 | 1.0 | 3.0 | 0.00 | 0.00 | 0.00 | 87 | 1012.1 |
| 20260506131550 | 67 | 222 | 0.0 | 3.0 | 0.00 | 0.00 | 0.00 | 88 | 1012.0 |
| 20260506130036 | 66 | 275 | 0.0 | 3.0 | 0.00 | 0.00 | 0.00 | 89 | 1011.8 |
| 20260506124533 | 66 | 260 | 0.0 | 2.0 | 0.00 | 0.00 | 0.00 | 89 | 1011.9 |
| 20260506123035 | 65 | 252 | 0.0 | 3.0 | 0.00 | 0.00 | 0.00 | 90 | 1011.8 |
| 20260506121530 | 65 | 262 | 0.0 | 3.0 | 0.00 | 0.00 | 0.00 | 89 | 1011.7 |
| 20260506120030 | 65 | 241 | 0.0 | 1.0 | 0.00 | 0.00 | 0.00 | 89 | 1011.5 |
| 20260506114533 | 65 | 240 | 0.0 | 3.0 | 0.00 | 0.00 | 0.00 | 89 | 1011.4 |
| 20260506113031 | 65 | 243 | 0.0 | 2.0 | 0.00 | 0.00 | 0.00 | 89 | 1011.3 |
| 20260506111523 | 65 | 233 | 0.0 | 3.0 | 0.00 | 0.00 | 0.00 | 88 | 1011.1 |
| 20260506110023 | 65 | 245 | 0.0 | 3.0 | 0.00 | 0.00 | 0.00 | 88 | 1011.0 |
| 20260506104520 | 65 | 245 | 1.0 | 3.0 | 0.00 | 0.00 | 0.00 | 88 | 1010.9 |
| 20260506103025 | 65 | 260 | 1.0 | 4.0 | 0.00 | 0.00 | 0.00 | 87 | 1010.6 |
| 20260506101518 | 65 | 236 | 0.0 | 3.0 | 0.00 | 0.00 | 0.00 | 87 | 1010.4 |
| 20260506100029 | 65 | 241 | 0.0 | 3.0 | 0.00 | 0.00 | 0.00 | 86 | 1010.2 |
| 20260506094516 | 65 | 246 | 1.0 | 4.0 | 0.00 | 0.00 | 0.00 | 85 | 1010.0 |
| 20260506093013 | 66 | 245 | 0.0 | 2.0 | 0.00 | 0.00 | 0.00 | 84 | 1010.1 |
| 20260506091512 | 66 | 245 | 0.0 | 1.0 | 0.00 | 0.00 | 0.00 | 83 | 1010.0 |
| 20260506090011 | 66 | 243 | 0.0 | 2.0 | 0.00 | 0.00 | 0.00 | 83 | 1010.0 |
| 20260506084507 | 66 | 249 | 0.0 | 2.0 | 0.00 | 0.00 | 0.00 | 81 | 1010.2 |
| 20260506083006 | 66 | 247 | 0.0 | 1.0 | 0.00 | 0.00 | 0.00 | 79 | 1010.0 |
| 20260506081503 | 66 | 249 | 0.0 | 0.0 | 0.00 | 0.00 | 0.00 | 78 | 1010.1 |
| 20260506073056 | 67 | 246 | 0.0 | 1.0 | 0.00 | 0.00 | 0.00 | 74 | 1010.2 |
| 20260506071556 | 67 | 193 | 0.0 | 2.0 | 0.00 | 0.00 | 0.00 | 73 | 1010.2 |
| 20260506070112 | 67 | 248 | 0.0 | 1.0 | 0.00 | 0.00 | 0.00 | 72 | 1010.7 |
| 20260506061546 | 68 | 240 | 0.0 | 0.0 | 0.00 | 0.00 | 0.00 | 67 | 1011.1 |
| 20260506044537 | 68 | 251 | 0.0 | 0.0 | 0.00 | 0.00 | 0.00 | 61 | 1010.6 |
| 20260506043031 | 68 | 251 | 0.0 | 0.0 | 0.00 | 0.00 | 0.00 | 61 | 1011.2 |
| 20260506041534 | 68 | 240 | 0.0 | 0.0 | 0.00 | 0.00 | 0.00 | 61 | 1011.1 |
| 20260506040029 | 68 | 250 | 0.0 | 1.0 | 0.00 | 0.00 | 0.00 | 60 | 1010.8 |
| 20260506034526 | 69 | 235 | 0.0 | 0.0 | 0.00 | 0.00 | 0.00 | 59 | 1010.6 |
| 20260506033025 | 69 | 196 | 0.0 | 0.0 | 0.00 | 0.00 | 0.00 | 57 | 1011.1 |
| 20260506031531 | 69 | 195 | 0.0 | 1.0 | 0.00 | 0.00 | 0.00 | 57 | 1010.9 |
| 20260506030025 | 69 | 173 | 0.0 | 1.0 | 0.00 | 0.00 | 0.00 | 56 | 1011.2 |
| 20260506024535 | 68 | 264 | 0.0 | 1.0 | 0.00 | 0.00 | 0.00 | 55 | 1011.3 |
| 20260506023021 | 69 | 279 | 0.0 | 1.0 | 0.00 | 0.00 | 0.00 | 56 | 1011.0 |
| 20260506021521 | 69 | 279 | 0.0 | 1.0 | 0.00 | 0.00 | 0.00 | 54 | 1010.9 |
| 20260506020022 | 70 | 279 | 0.0 | 1.0 | 0.00 | 0.00 | 0.00 | 52 | 1010.8 |
| 20260506014519 | 70 | 279 | 0.0 | 0.0 | 0.00 | 0.00 | 0.00 | 53 | 1010.8 |
| 20260506013022 | 70 | 279 | 0.0 | 1.0 | 0.00 | 0.00 | 0.00 | 52 | 1011.0 |
| 20260506011546 | 71 | 253 | 0.0 | 0.0 | 0.00 | 0.00 | 0.00 | 51 | 1010.6 |
| 20260506010019 | 72 | 254 | 0.0 | 0.0 | 0.00 | 0.00 | 0.00 | 49 | 1010.8 |
| 20260506004518 | 73 | 254 | 0.0 | 0.0 | 0.00 | 0.00 | 0.00 | 46 | 1010.7 |
| 20260506003018 | 73 | 254 | 0.0 | 0.0 | 0.00 | 0.00 | 0.00 | 45 | 1011.0 |
| 20260506001516 | 74 | 254 | 0.0 | 1.0 | 0.00 | 0.00 | 0.00 | 43 | 1011.0 |
| 20260506000026 | 74 | 248 | 0.0 | 2.0 | 0.00 | 0.00 | 0.00 | 42 | 1010.8 |
| 20260505234533 | 75 | 240 | 0.0 | 3.0 | 0.00 | 0.00 | 0.00 | 41 | 1010.7 |
| 20260505233014 | 75 | 247 | 0.0 | 1.0 | 0.00 | 0.00 | 0.00 | 43 | 1010.9 |
| 20260505231514 | 75 | 252 | 0.0 | 2.0 | 0.00 | 0.00 | 0.00 | 43 | 1010.8 |
| 20260505230023 | 76 | 193 | 0.0 | 2.0 | 0.00 | 0.00 | 0.00 | 43 | 1010.6 |
| 20260505224515 | 76 | 217 | 0.0 | 1.0 | 0.00 | 0.00 | 0.00 | 47 | 1010.4 |
| 20260505223015 | 77 | 248 | 0.0 | 2.0 | 0.00 | 0.00 | 0.00 | 43 | 1010.5 |
| 20260505221511 | 77 | 274 | 1.0 | 3.0 | 0.00 | 0.00 | 0.00 | 41 | 1010.5 |
| 20260505220009 | 77 | 170 | 0.0 | 1.0 | 0.00 | 0.00 | 0.00 | 42 | 1010.3 |
| 20260505214511 | 77 | 108 | 0.0 | 2.0 | 0.00 | 0.00 | 0.00 | 41 | 1010.3 |
| 20260505213006 | 77 | 120 | 0.0 | 6.0 | 0.00 | 0.00 | 0.00 | 41 | 1010.6 |
| 20260505211504 | 78 | 101 | 0.0 | 5.0 | 0.00 | 0.00 | 0.00 | 41 | 1010.6 |
| 20260505210006 | 78 | 210 | 2.0 | 4.0 | 0.00 | 0.00 | 0.00 | 41 | 1010.7 |
| 20260505204500 | 78 | 265 | 2.0 | 4.0 | 0.00 | 0.00 | 0.00 | 40 | 1011.0 |
| 20260505203110 | 78 | 254 | 0.0 | 3.0 | 0.00 | 0.00 | 0.00 | 44 | 1011.1 |
| 20260505201557 | 78 | 294 | 1.0 | 4.0 | 0.00 | 0.00 | 0.00 | 41 | 1011.3 |
| 20260505200056 | 78 | 151 | 0.0 | 5.0 | 0.00 | 0.00 | 0.00 | 42 | 1011.5 |
| 20260505194609 | 79 | 267 | 0.0 | 4.0 | 0.00 | 0.00 | 0.00 | 41 | 1011.8 |
| 20260505193052 | 79 | 251 | 1.0 | 5.0 | 0.00 | 0.00 | 0.00 | 40 | 1012.0 |
| 20260505191604 | 79 | 155 | 0.0 | 3.0 | 0.00 | 0.00 | 0.00 | 41 | 1012.0 |
| 20260505190049 | 80 | 200 | 1.0 | 6.0 | 0.00 | 0.00 | 0.00 | 41 | 1012.1 |
| 20260505184546 | 79 | 214 | 0.0 | 3.0 | 0.00 | 0.00 | 0.00 | 41 | 1012.3 |
| 20260505183046 | 79 | 127 | 1.0 | 5.0 | 0.00 | 0.00 | 0.00 | 40 | 1012.4 |
| 20260505181545 | 80 | 244 | 2.0 | 4.0 | 0.00 | 0.00 | 0.00 | 39 | 1012.7 |
| 20260505180049 | 81 | 162 | 0.0 | 3.0 | 0.00 | 0.00 | 0.00 | 41 | 1013.0 |
| 20260505174543 | 79 | 152 | 0.0 | 5.0 | 0.00 | 0.00 | 0.00 | 41 | 1013.3 |
| 20260505173044 | 81 | 122 | 0.0 | 5.0 | 0.00 | 0.00 | 0.00 | 41 | 1013.6 |
| 20260505171542 | 81 | 193 | 0.0 | 2.0 | 0.00 | 0.00 | 0.00 | 41 | 1013.5 |
| 20260505170037 | 78 | 258 | 0.0 | 5.0 | 0.00 | 0.00 | 0.00 | 44 | 1013.7 |
| 20260505164533 | 76 | 239 | 0.0 | 5.0 | 0.00 | 0.00 | 0.00 | 47 | 1013.5 |
| 20260505163029 | 74 | 213 | 1.0 | 4.0 | 0.00 | 0.00 | 0.00 | 48 | 1013.5 |
| 20260505161528 | 73 | 236 | 3.0 | 8.0 | 0.00 | 0.00 | 0.00 | 49 | 1013.6 |